This is the latest recevied weather packets stored in our database for station/object K8JMX-13. If no packets are shown the sender has not sent any weather packets the latest 10 day(s).
| Time | Temp. | Humidity | Pressure | Rain* | Wind** | Luminosity | Snow |
|---|---|---|---|---|---|---|---|
| 1777922522 | 22.78° C | 46% | 1006.1 hPa | 0 mm | - | 709 W/m² | - |
| 1777922220 | 22.78° C | 46% | 1006.1 hPa | 0 mm | - | 782 W/m² | - |
| 1777921916 | 22.78° C | 45% | 1006 hPa | 0 mm | - | 675 W/m² | - |
| 1777921612 | 22.78° C | 47% | 1005.9 hPa | 0 mm | - | 661 W/m² | - |
| 1777921309 | 22.78° C | 45% | 1006.1 hPa | 0 mm | - | 759 W/m² | - |
| 1777921005 | 22.78° C | 45% | 1006 hPa | 0 mm | - | 456 W/m² | - |
| 1777920702 | 22.78° C | 45% | 1005.9 hPa | 0 mm | - | 379 W/m² | - |
| 1777920398 | 22.78° C | 45% | 1005.9 hPa | 0 mm | - | 747 W/m² | - |
| 1777920093 | 22.78° C | 45% | 1006 hPa | 0 mm | - | 796 W/m² | - |
| 1777919790 | 22.22° C | 47% | 1005.9 hPa | 0 mm | - | 600 W/m² | - |
| 1777919488 | 22.78° C | 46% | 1006 hPa | 0 mm | - | 737 W/m² | - |
| 1777919186 | 22.22° C | 47% | 1006 hPa | 0 mm | - | 568 W/m² | - |
| 1777918883 | 22.22° C | 47% | 1006.2 hPa | 0 mm | - | 297 W/m² | - |
| 1777918580 | 22.22° C | 46% | 1006.2 hPa | 0 mm | - | 319 W/m² | - |
| 1777918277 | 21.67° C | 46% | 1006.3 hPa | 0 mm | - | 806 W/m² | - |
| 1777917977 | 22.22° C | 47% | 1006.3 hPa | 0 mm | - | 436 W/m² | - |
| 1777917675 | 21.67° C | 48% | 1006.3 hPa | 0 mm | - | 361 W/m² | - |
| 1777917372 | 21.67° C | 47% | 1006.2 hPa | 0 mm | - | 802 W/m² | - |
| 1777917068 | 21.11° C | 48% | 1006.5 hPa | 0 mm | - | 300 W/m² | - |
| 1777916767 | 22.22° C | 47% | 1006.3 hPa | 0 mm | - | 319 W/m² | - |
| 1777916463 | 22.22° C | 47% | 1006.6 hPa | 0 mm | - | 763 W/m² | - |
| 1777916160 | 21.67° C | 47% | 1006.6 hPa | 0 mm | - | 739 W/m² | - |
| 1777915858 | 21.67° C | 48% | 1006.5 hPa | 0 mm | - | 739 W/m² | - |
| 1777915553 | 21.67° C | 49% | 1006.6 hPa | 0 mm | - | 737 W/m² | - |
| 1777915250 | 21.11° C | 49% | 1006.6 hPa | 0 mm | - | 738 W/m² | - |
* Rain latest hour (hover to see other rain measurements)
** Current wind speed in m/s (hover to see current wind gust speed)